This is the latest recevied weather packets stored in our database for station/object KC3WWU. If no packets are shown the sender has not sent any weather packets the latest 10 day(s).
| Time | Temp. | Humidity | Pressure | Rain* | Wind** | Luminosity | Snow |
|---|---|---|---|---|---|---|---|
| 1777869392 | 1.67° C | 91% | 1011.7 hPa | 0 mm | - | 0 W/m² | - |
| 1777869089 | 1.67° C | 90% | 1011.5 hPa | 0 mm | - | 0 W/m² | - |
| 1777868786 | 2.22° C | 90% | 1011.4 hPa | 0 mm | - | 0 W/m² | - |
| 1777868483 | 2.22° C | 89% | 1011.3 hPa | 0 mm | - | 0 W/m² | - |
| 1777868178 | 2.22° C | 87% | 1011.4 hPa | 0 mm | - | 0 W/m² | - |
| 1777867875 | 2.78° C | 85% | 1011.3 hPa | 0 mm | - | 0 W/m² | - |
| 1777867572 | 3.89° C | 84% | 1011.3 hPa | 0 mm | - | 0 W/m² | - |
| 1777867269 | 3.89° C | 79% | 1011.4 hPa | 0 mm | - | 0 W/m² | - |
| 1777866966 | 4.44° C | 77% | 1011.5 hPa | 0 mm | - | 0 W/m² | - |
| 1777866662 | 4.44° C | 78% | 1011.5 hPa | 0 mm | - | 0 W/m² | - |
| 1777866360 | 4.44° C | 78% | 1011.4 hPa | 0 mm | - | 0 W/m² | - |
| 1777866057 | 4.44° C | 74% | 1011.3 hPa | 0 mm | - | 0 W/m² | - |
| 1777865755 | 5° C | 76% | 1011.2 hPa | 0 mm | - | 0 W/m² | - |
| 1777865452 | 5° C | 72% | 1011.3 hPa | 0 mm | - | 0 W/m² | - |
| 1777865149 | 4.44° C | 79% | 1011.3 hPa | 0 mm | - | 0 W/m² | - |
| 1777864845 | 5° C | 79% | 1011.6 hPa | 0 mm | - | 0 W/m² | - |
| 1777864542 | 5° C | 74% | 1011.4 hPa | 0 mm | - | 0 W/m² | - |
| 1777864238 | 5° C | 70% | 1011.5 hPa | 0 mm | - | 0 W/m² | - |
| 1777863936 | 5° C | 75% | 1011.6 hPa | 0 mm | - | 0 W/m² | - |
| 1777863632 | 5° C | 72% | 1011.7 hPa | 0 mm | - | 0 W/m² | - |
| 1777863330 | 5.56° C | 74% | 1011.5 hPa | 0 mm | - | 0 W/m² | - |
| 1777863026 | 6.11° C | 68% | 1011.5 hPa | 0 mm | - | 0 W/m² | - |
| 1777862723 | 6.11° C | 71% | 1011.6 hPa | 0 mm | - | 0 W/m² | - |
| 1777862420 | 5.56° C | 70% | 1011.7 hPa | 0 mm | - | 0 W/m² | - |
| 1777862117 | 5.56° C | 72% | 1011.6 hPa | 0 mm | - | 0 W/m² | - |
* Rain latest hour (hover to see other rain measurements)
** Current wind speed in m/s (hover to see current wind gust speed)